Flag for U.S.A. Weather past 2 weeks in Topeka, Kansas, U.S.A.

Now
55 °F

Overcast.


Feels Like: 52 °F
Forecast: 47 / 62 °F
Wind: 13 mph from Northeast

Location: Philip Billard Municipal Airport

Current Time: Apr 26, 2015 at 2:57:51 PM

Latest Report: Apr 26, 2015 at 1:53 PM


Visibility: 10 mi

Pressure: 29.97 "Hg

Humidity: 67%

Dew point: 44 °F

Location of TopekaLocation

Historic Weather in Topeka — Graph

°F

Topeka temperature yesterday

Maximum temperature yesterday: 66 °F (at 1:53 PM)
Minimum temperature yesterday: 50 °F (at 9:53 PM)
Average temperature yesterday: 58 °F

Past Weeks' High & Low Weather Summary

 TemperatureHumidityPressure
High76 °F (Apr 16, 3:53 PM)100% (Apr 17, 7:03 AM)30.26 "Hg (Apr 17, 7:03 AM)
Low38 °F (Apr 21, 5:53 AM)20% (Apr 21, 4:53 PM)29.37 "Hg (Apr 25, 3:53 AM)
Average57 °F66%29.92 "Hg
* Reported Apr 11 1:53 PM — Apr 26 1:53 PM, Topeka, Weather by CustomWeather, © 2015

Note: Actual official high and low records may vary slightly from our data, if they occured in-between our weather recording intervals... More about our weather records

Advertising

Topeka weather history for previous 24 hours

 ConditionsComfort  
Time TempWeatherWind HumidityBarometerVisibility
1:53 PM
Sun, Apr 26
55 °FOvercast.13 mph67%29.97 "Hg10 mi
12:53 PM53 °FOvercast.13 mph72%29.98 "Hg10 mi
11:53 AM53 °FOvercast.14 mph69%29.99 "Hg10 mi
10:53 AM51 °FMostly cloudy.12 mph77%29.98 "Hg10 mi
9:53 AM49 °FOvercast.14 mph84%29.97 "Hg7 mi
8:53 AM50 °FMostly cloudy.9 mph83%29.96 "Hg7 mi
7:53 AM50 °FOvercast.13 mph83%29.94 "Hg7 mi
7:00 AM50 °FOvercast.8 mph83%29.92 "Hg8 mi
5:53 AM50 °FOvercast.12 mph86%29.88 "Hg8 mi
5:03 AM50 °FOvercast.10 mph86%29.86 "Hg8 mi
4:53 AM50 °FLow clouds.12 mph86%29.86 "Hg9 mi
3:53 AM50 °FLow clouds.9 mph89%29.84 "Hg9 mi
2:53 AM50 °FFog.7 mph89%29.83 "Hg5 mi
1:53 AM50 °FOvercast.7 mph86%29.84 "Hg10 mi
12:53 AM50 °FOvercast.5 mph86%29.84 "Hg10 mi
11:53 PM
Sat, Apr 25
50 °FOvercast.6 mph86%29.83 "Hg10 mi
10:53 PM50 °FOvercast.7 mph86%29.81 "Hg10 mi
9:53 PM50 °FOvercast.7 mph89%29.80 "Hg10 mi
8:53 PM51 °FOvercast.14 mph86%29.78 "Hg7 mi
7:53 PM52 °FOvercast.12 mph86%29.74 "Hg9 mi
6:53 PM53 °FOvercast.13 mph86%29.72 "Hg10 mi
5:53 PM55 °FOvercast.14 mph87%29.69 "Hg10 mi
4:53 PM55 °FLow clouds.16 mph90%29.66 "Hg10 mi
3:53 PM57 °FOvercast.14 mph90%29.63 "Hg8 mi
2:53 PM62 °FMore clouds than sun.14 mph78%29.58 "Hg10 mi
Weather by CustomWeather, © 2015

See weather overviewHow to use our weather pages